EW0362 Weather Reports


Display with metric or nautical units.
time (UTC)temp
F
wind
direction
speed
MPH
gust
MPH
rain 1hr
in
rain 24hr
in
rain mn
in
humidity
%
barometer
mb
20260905032204 63 81 0.0 0.0 0.00 0.00 0.00 90 1008.6
20260905031703 64 81 0.0 0.0 0.00 0.00 0.00 90 1008.6
20260905031204 64 81 0.0 0.0 0.00 0.00 0.00 90 1008.6
20260905030703 64 81 0.0 0.0 0.00 0.00 0.00 90 1008.7
20260905025703 64 81 0.0 0.0 0.00 0.00 0.00 90 1008.9
20260905024203 64 81 0.0 0.0 0.00 0.00 0.00 89 1008.9
20260905023704 64 81 0.0 0.0 0.00 0.00 0.00 89 1008.9
20260905021704 65 81 0.0 0.0 0.00 0.01 0.00 88 1008.9
20260905020703 65 80 0.0 0.0 0.00 0.01 0.00 87 1009.0
20260905015703 65 80 0.0 0.0 0.00 0.01 0.00 87 1009.0
20260905015204 66 81 0.0 0.0 0.00 0.01 0.00 87 1009.0
20260905014704 66 81 0.0 0.0 0.00 0.01 0.00 87 1009.0
20260905013703 66 80 0.0 0.0 0.00 0.01 0.00 86 1009.0
20260905013204 66 81 0.0 0.0 0.00 0.01 0.00 88 1009.1
20260905011204 67 81 0.0 0.0 0.00 0.01 0.00 86 1009.1
20260905005705 68 81 0.0 0.0 0.00 0.01 0.00 84 1009.1
20260905005205 68 81 0.0 0.0 0.00 0.01 0.00 83 1009.0
20260905004205 69 81 0.0 0.0 0.00 0.01 0.00 84 1008.9
20260905002704 69 80 0.0 0.0 0.00 0.01 0.00 81 1008.9
20260905002205 69 81 0.0 0.0 0.00 0.01 0.00 81 1008.9
20260905001204 70 81 0.0 0.0 0.00 0.01 0.00 81 1008.8
20260904233205 72 80 0.0 2.0 0.00 0.01 0.00 80 1008.3
20260904232704 73 81 0.0 3.0 0.00 0.01 0.00 77 1008.3
20260904231204 74 74 0.0 0.0 0.00 0.01 0.00 78 1008.2
20260904225705 75 74 0.0 0.0 0.00 0.01 0.00 73 1008.2
20260904222704 78 74 0.0 0.0 0.00 0.01 0.00 69 1008.0
20260904222205 78 74 0.0 1.0 0.00 0.01 0.00 64 1008.0
20260904221205 78 74 0.0 1.0 0.00 0.01 0.00 64 1007.9
20260904220704 78 74 1.0 2.0 0.00 0.01 0.00 63 1007.9
20260904215704 78 76 1.0 3.0 0.00 0.01 0.00 65 1007.9
20260904215209 78 70 1.0 3.0 0.00 0.01 0.00 65 1007.9
20260904214204 77 117 0.0 1.0 0.00 0.01 0.00 65 1007.8
20260904213704 77 117 0.0 2.0 0.00 0.01 0.00 65 1007.8
20260904212205 77 236 1.0 3.0 0.00 0.01 0.00 69 1007.9
20260904211204 77 250 1.0 3.0 0.00 0.01 0.00 66 1007.9
20260904210705 78 252 1.0 6.0 0.00 0.01 0.00 66 1008.0
20260904205704 78 199 1.0 3.0 0.00 0.01 0.00 67 1007.9
20260904204704 78 230 0.0 3.0 0.00 0.01 0.00 67 1007.9
20260904204204 78 231 0.0 1.0 0.00 0.01 0.00 68 1007.9
20260904203705 79 231 0.0 3.0 0.00 0.01 0.00 65 1007.9
20260904201205 79 350 0.0 3.0 0.00 0.01 0.00 61 1008.1
20260904194705 80 293 1.0 3.0 0.00 0.01 0.00 60 1007.9
20260904193211 81 231 1.0 3.0 0.00 0.01 0.00 59 1007.9
20260904191705 81 38 1.0 5.0 0.00 0.01 0.00 57 1007.7
20260904191204 81 304 1.0 7.0 0.00 0.01 0.00 57 1007.7
20260904190704 81 78 2.0 7.0 0.00 0.01 0.00 59 1007.7
20260904190204 81 310 1.0 3.0 0.00 0.01 0.00 59 1007.7
20260904185204 81 301 1.0 2.0 0.00 0.01 0.00 61 1007.8
20260904183705 81 49 1.0 3.0 0.00 0.01 0.00 59 1008.0
20260904182705 81 214 2.0 6.0 0.00 0.01 0.00 59 1008.1
20260904180708 80 77 1.0 8.0 0.00 0.01 0.00 63 1008.1
20260904180204 80 251 1.0 3.0 0.00 0.01 0.00 62 1008.1
20260904175704 80 268 2.0 6.0 0.00 0.01 0.00 62 1008.1
20260904173704 80 345 1.0 3.0 0.00 0.01 0.00 62 1008.0
20260904173204 80 249 2.0 5.0 0.00 0.01 0.00 62 1008.1
20260904172705 80 334 2.0 5.0 0.00 0.01 0.00 63 1008.1
20260904170704 79 343 2.0 5.0 0.00 0.01 0.00 63 1008.4
20260904170204 79 233 1.0 3.0 0.00 0.01 0.00 66 1008.6
20260904164204 78 230 2.0 5.0 0.00 0.01 0.00 66 1008.5
20260904163704 78 254 2.0 5.0 0.00 0.01 0.00 69 1008.5
20260904162704 78 238 2.0 5.0 0.00 0.01 0.00 71 1008.4
20260904162205 78 243 3.0 6.0 0.00 0.01 0.00 69 1008.5
20260904161705 78 310 1.0 5.0 0.00 0.01 0.00 67 1008.6
20260904155204 77 66 2.0 6.0 0.00 0.01 0.00 71 1009.0
20260904154704 77 214 2.0 5.0 0.00 0.01 0.00 72 1009.0
20260904152704 76 59 1.0 5.0 0.00 0.01 0.00 77 1009.2
20260904151204 76 178 0.0 5.0 0.00 0.01 0.00 78 1009.2
20260904150704 75 79 1.0 5.0 0.00 0.01 0.00 79 1009.2
20260904145704 75 303 1.0 5.0 0.00 0.01 0.00 81 1009.2
20260904144704 74 247 1.0 3.0 0.00 0.01 0.00 82 1009.3
20260904144204 73 63 3.0 6.0 0.00 0.01 0.00 82 1009.4
20260904143705 73 54 1.0 5.0 0.00 0.01 0.00 85 1009.4
20260904143204 72 242 1.0 3.0 0.00 0.01 0.00 86 1009.5
20260904142204 71 67 1.0 3.0 0.00 0.01 0.00 90 1009.6
20260904141704 71 259 0.0 3.0 0.00 0.01 0.00 90 1009.6
20260904140204 70 240 2.0 5.0 0.00 0.01 0.00 93 1009.7
20260904135704 70 315 0.0 0.0 0.00 0.01 0.00 95 1009.7
20260904135205 69 313 0.0 3.0 0.00 0.01 0.00 96 1009.7
20260904133704 69 239 0.0 1.0 0.00 0.01 0.00 97 1009.7
20260904131204 67 128 0.0 1.0 0.00 0.01 0.00 98 1009.8
20260904130704 67 62 0.0 1.0 0.00 0.01 0.00 98 1009.9
20260904130204 67 62 0.0 1.0 0.00 0.01 0.00 98 1009.8
20260904125704 67 63 0.0 0.0 0.00 0.01 0.00 98 1009.9
20260904123704 67 63 0.0 0.0 0.00 0.01 0.00 99 1009.9
20260904122704 66 63 0.0 0.0 0.00 0.01 0.00 98 1009.9
20260904120204 66 63 0.0 2.0 0.00 0.01 0.00 98 1009.7
20260904113704 66 61 0.0 0.0 0.00 0.01 0.00 99 1009.9
20260904113204 66 61 0.0 0.0 0.00 0.01 0.00 98 1009.9
20260904112204 66 63 0.0 0.0 0.00 0.01 0.00 99 1009.8
20260904111704 66 63 0.0 0.0 0.00 0.01 0.00 99 1009.8
20260904111204 66 63 0.0 0.0 0.00 0.01 0.00 99 1009.8
20260904110704 66 63 0.0 0.0 0.00 0.01 0.00 98 1009.8
20260904110204 66 63 0.0 0.0 0.00 0.01 0.00 98 1009.7
20260904104204 66 63 0.0 0.0 0.00 0.01 0.00 99 1009.6
20260904103704 66 63 0.0 0.0 0.00 0.01 0.00 98 1009.4
20260904102704 66 63 0.0 0.0 0.00 0.01 0.00 98 1009.4
20260904101704 66 63 0.0 0.0 0.00 0.01 0.00 98 1009.5
20260904100704 66 65 0.0 0.0 0.00 0.01 0.00 98 1009.4
20260904100204 66 65 0.0 0.0 0.00 0.02 0.00 98 1009.3
20260904095704 66 65 0.0 0.0 0.00 0.02 0.00 98 1009.3
20260904094203 66 65 0.0 0.0 0.00 0.02 0.00 98 1009.4
20260904092204 66 65 0.0 0.0 0.00 0.03 0.00 98 1009.4
20260904090704 66 65 0.0 0.0 0.00 0.04 0.00 98 1009.3
20260904090204 66 65 0.0 0.0 0.00 0.04 0.00 98 1009.2
20260904085704 66 65 0.0 0.0 0.00 0.04 0.00 98 1009.3
20260904084203 66 65 0.0 0.0 0.00 0.04 0.00 98 1009.3
20260904083704 66 65 0.0 0.0 0.00 0.04 0.00 98 1009.2
20260904083203 66 65 0.0 0.0 0.00 0.04 0.00 98 1009.3
20260904082204 66 65 0.0 0.0 0.00 0.04 0.00 98 1009.5
20260904081204 66 65 0.0 0.0 0.00 0.05 0.00 98 1009.6
20260904075704 66 65 0.0 0.0 0.00 0.09 0.00 98 1009.7
20260904075203 66 65 0.0 0.0 0.00 0.09 0.00 98 1009.6
20260904074704 66 65 0.0 0.0 0.00 0.09 0.00 98 1009.6
20260904074204 66 65 0.0 0.0 0.00 0.09 0.00 98 1009.5
20260904073204 66 65 0.0 0.0 0.00 0.09 0.00 98 1009.5
20260904072704 66 65 0.0 0.0 0.00 0.09 0.00 98 1009.5
20260904071704 66 65 0.0 0.0 0.00 0.09 0.00 98 1009.7
20260904065704 66 65 0.0 0.0 0.00 0.09 0.00 98 1009.8
20260904065204 66 65 0.0 0.0 0.00 0.09 0.00 98 1009.9
20260904064703 66 65 0.0 0.0 0.00 0.09 0.00 98 1009.9
20260904063704 66 65 0.0 0.0 0.00 0.09 0.00 97 1009.9
20260904062203 66 65 0.0 0.0 0.00 0.09 0.00 97 1010.0
20260904061204 66 65 0.0 0.0 0.00 0.09 0.00 97 1010.2
20260904055704 66 65 0.0 0.0 0.00 0.09 0.00 97 1010.5
20260904055204 66 65 0.0 0.0 0.00 0.09 0.00 97 1010.5
20260904054703 66 65 0.0 0.0 0.00 0.09 0.00 97 1010.5
20260904054204 66 65 0.0 0.0 0.00 0.09 0.00 97 1010.5
20260904053703 66 65 0.0 0.0 0.00 0.09 0.00 97 1010.5
20260904053203 66 65 0.0 0.0 0.00 0.09 0.00 97 1010.6
20260904052704 67 65 0.0 0.0 0.00 0.09 0.00 97 1010.6
20260904051203 67 65 0.0 0.0 0.00 0.09 0.00 97 1010.9
20260904050204 67 65 0.0 0.0 0.00 0.09 0.00 97 1010.8
20260904045704 67 65 0.0 0.0 0.00 0.09 0.00 97 1010.7
20260904045204 67 65 0.0 0.0 0.00 0.09 0.00 97 1010.7
20260904044204 67 63 0.0 0.0 0.00 0.09 0.00 97 1010.8
20260904043703 67 63 0.0 0.0 0.00 0.09 0.00 97 1010.8
20260904042703 67 63 0.0 0.0 0.00 0.09 0.00 97 1011.0
20260904042204 67 63 0.0 0.0 0.00 0.09 0.00 97 1010.9
20260904035703 67 63 0.0 0.0 0.00 0.09 0.09 97 1011.2
20260904034703 67 63 0.0 1.0 0.00 0.09 0.09 97 1011.3
20260904032704 67 63 0.0 1.0 0.00 0.09 0.09 97 1011.3